• In Deutschland
  • Länderverzeichnis
  • Für 7 Tage
  • Wassertemperatur
  • Satellitenkarten
  • Wetterkarte
  • Widgets
  • user-avatar
    Anmelden

    Stündliche Wetter Xiancun

    Heute, 24 November, Freitag

    Zeit Temperatur Niederschläge Wind Luftdruck Luftfeuchtigkeit
    00:00 +11°C° 0,1 mm 1 m/S 748 mmHg 78%
    01:00 +11°C° 0,1 mm 1 m/S 747 mmHg 79%
    02:00 +11°C° 0,1 mm 1 m/S 747 mmHg 79%
    03:00 +11°C° 0,3 mm 1 m/S 748 mmHg 82%
    04:00 +11°C° 0,3 mm 1 m/S 748 mmHg 84%
    05:00 +10°C° 0,3 mm 1 m/S 748 mmHg 86%
    06:00 +11°C° 0,4 mm 1 m/S 748 mmHg 86%
    07:00 +11°C° 0,4 mm 1 m/S 748 mmHg 87%
    08:00 +11°C° 0,4 mm 1 m/S 749 mmHg 87%
    09:00 +11°C° 0,4 mm 1 m/S 749 mmHg 85%
    10:00 +11°C° 0,4 mm 1 m/S 749 mmHg 83%
    11:00 +12°C° 0,4 mm 1 m/S 749 mmHg 81%
    12:00 +13°C° 0,1 mm 1 m/S 749 mmHg 75%
    13:00 +14°C° 0,1 mm 1 m/S 748 mmHg 69%
    14:00 +14°C° 0,1 mm 1 m/S 748 mmHg 63%
    15:00 +14°C° 0 mm 1 m/S 748 mmHg 67%
    16:00 +13°C° 0 mm 1 m/S 747 mmHg 70%
    17:00 +12°C° 0 mm 1 m/S 747 mmHg 73%
    18:00 +12°C° 0 mm 1 m/S 748 mmHg 75%
    19:00 +11°C° 0 mm 1 m/S 748 mmHg 76%
    20:00 +11°C° 0 mm 1 m/S 748 mmHg 78%
    21:00 +11°C° 0,1 mm 1 m/S 748 mmHg 78%
    22:00 +11°C° 0,1 mm 1 m/S 748 mmHg 79%
    23:00 +11°C° 0,1 mm 1 m/S 749 mmHg 79%

    Morgen, 25 November, Samstag

    Zeit Temperatur Niederschläge Wind Luftdruck Luftfeuchtigkeit
    00:00 +10°C° 0,2 mm 1 m/S 748 mmHg 81%
    01:00 +10°C° 0,2 mm 1 m/S 748 mmHg 83%
    02:00 +10°C° 0,2 mm 1 m/S 748 mmHg 85%
    03:00 +10°C° 0,4 mm 1 m/S 748 mmHg 86%
    04:00 +10°C° 0,4 mm 1 m/S 748 mmHg 88%
    05:00 +10°C° 0,4 mm 1 m/S 748 mmHg 89%
    06:00 +10°C° 0,6 mm 1 m/S 748 mmHg 90%
    07:00 +10°C° 0,6 mm 1 m/S 748 mmHg 90%
    08:00 +10°C° 0,6 mm 1 m/S 749 mmHg 91%
    09:00 +11°C° 0,7 mm 1 m/S 749 mmHg 90%
    10:00 +11°C° 0,7 mm 1 m/S 749 mmHg 90%
    11:00 +12°C° 0,7 mm 1 m/S 749 mmHg 90%
    12:00 +13°C° 0,5 mm 1 m/S 748 mmHg 89%
    13:00 +13°C° 0,5 mm 1 m/S 747 mmHg 88%
    14:00 +14°C° 0,5 mm 1 m/S 746 mmHg 87%
    15:00 +14°C° 0,4 mm 1 m/S 746 mmHg 90%
    16:00 +14°C° 0,4 mm 1 m/S 746 mmHg 92%
    17:00 +13°C° 0,4 mm 1 m/S 746 mmHg 94%
    18:00 +13°C° 0,4 mm 1 m/S 746 mmHg 94%
    19:00 +13°C° 0,4 mm 1 m/S 746 mmHg 95%
    20:00 +13°C° 0,4 mm 1 m/S 747 mmHg 95%
    21:00 +13°C° 0,5 mm 1 m/S 747 mmHg 95%
    22:00 +13°C° 0,5 mm 1 m/S 747 mmHg 95%
    23:00 +13°C° 0,5 mm 1 m/S 747 mmHg 95%

    übermorgen, 26 November, Sonntag

    Zeit Temperatur Niederschläge Wind Luftdruck Luftfeuchtigkeit
    00:00 +14°C° 0,7 mm 1 m/S 747 mmHg 95%
    01:00 +14°C° 0,7 mm 1 m/S 746 mmHg 95%
    02:00 +14°C° 0,7 mm 1 m/S 746 mmHg 96%
    03:00 +14°C° 0,2 mm 1 m/S 746 mmHg 95%
    04:00 +14°C° 0,2 mm 1 m/S 745 mmHg 95%
    05:00 +14°C° 0,2 mm 1 m/S 745 mmHg 95%
    06:00 +14°C° 0,1 mm 1 m/S 746 mmHg 94%
    07:00 +15°C° 0,1 mm 1 m/S 746 mmHg 93%
    08:00 +15°C° 0,1 mm 1 m/S 746 mmHg 92%
    09:00 +18°C° 0 mm 1 m/S 746 mmHg 86%
    10:00 +20°C° 0 mm 1 m/S 746 mmHg 80%
    11:00 +21°C° 0 mm 1 m/S 746 mmHg 75%
    12:00 +21°C° 0 mm 1 m/S 746 mmHg 76%
    13:00 +21°C° 0 mm 1 m/S 745 mmHg 76%
    14:00 +21°C° 0 mm 1 m/S 745 mmHg 77%
    15:00 +20°C° 0 mm 1 m/S 745 mmHg 81%
    16:00 +19°C° 0 mm 1 m/S 745 mmHg 85%
    17:00 +18°C° 0 mm 1 m/S 745 mmHg 89%
    18:00 +18°C° 0,1 mm 1 m/S 745 mmHg 90%
    19:00 +18°C° 0,1 mm 1 m/S 746 mmHg 91%
    20:00 +16°C° 0,1 mm 1 m/S 746 mmHg 93%
    21:00 +16°C° 0 mm 1 m/S 746 mmHg 92%
    22:00 +15°C° 0 mm 1 m/S 746 mmHg 91%
    23:00 +15°C° 0 mm 1 m/S 746 mmHg 90%

    27 November, Montag

    Zeit Temperatur Niederschläge Wind Luftdruck Luftfeuchtigkeit
    00:00 +14°C° 0 mm 1 m/S 746 mmHg 90%
    01:00 +14°C° 0 mm 1 m/S 746 mmHg 90%
    02:00 +13°C° 0 mm 1 m/S 745 mmHg 89%
    03:00 +13°C° 0 mm 1 m/S 745 mmHg 89%
    04:00 +12°C° 0 mm 1 m/S 745 mmHg 89%
    05:00 +12°C° 0 mm 1 m/S 745 mmHg 89%
    06:00 +12°C° 0 mm 1 m/S 745 mmHg 85%
    07:00 +13°C° 0 mm 1 m/S 745 mmHg 81%
    08:00 +14°C° 0 mm 1 m/S 746 mmHg 77%
    09:00 +16°C° 0 mm 1 m/S 746 mmHg 70%
    10:00 +18°C° 0 mm 1 m/S 745 mmHg 62%
    11:00 +20°C° 0 mm 1 m/S 745 mmHg 55%
    12:00 +21°C° 0 mm 1 m/S 744 mmHg 57%
    13:00 +21°C° 0 mm 1 m/S 744 mmHg 59%
    14:00 +21°C° 0 mm 2 m/S 743 mmHg 61%
    15:00 +21°C° 0 mm 1 m/S 743 mmHg 68%
    16:00 +19°C° 0 mm 1 m/S 743 mmHg 76%
    17:00 +18°C° 0 mm 1 m/S 743 mmHg 83%
    18:00 +16°C° 0 mm 1 m/S 743 mmHg 86%
    19:00 +16°C° 0 mm 1 m/S 743 mmHg 89%
    20:00 +15°C° 0 mm 1 m/S 744 mmHg 92%
    21:00 +15°C° 0 mm 1 m/S 744 mmHg 92%
    22:00 +15°C° 0 mm 1 m/S 744 mmHg 93%
    23:00 +15°C° 0 mm 1 m/S 744 mmHg 93%

    28 November, Dienstag

    Zeit Temperatur Niederschläge Wind Luftdruck Luftfeuchtigkeit
    00:00 +14°C° 0 mm 1 m/S 743 mmHg 93%
    01:00 +14°C° 0 mm 1 m/S 743 mmHg 93%
    02:00 +14°C° 0 mm 1 m/S 743 mmHg 94%
    03:00 +15°C° 0 mm 1 m/S 743 mmHg 93%
    04:00 +15°C° 0 mm 1 m/S 742 mmHg 93%
    05:00 +15°C° 0 mm 1 m/S 742 mmHg 93%
    06:00 +16°C° 0 mm 1 m/S 743 mmHg 90%
    07:00 +18°C° 0 mm 1 m/S 743 mmHg 87%
    08:00 +19°C° 0 mm 1 m/S 744 mmHg 83%
    09:00 +22°C° 0 mm 1 m/S 744 mmHg 76%
    10:00 +22°C° 0 mm 0 m/S 744 mmHg 69%
    11:00 +25°C° 0 mm 0 m/S 744 mmHg 62%
    12:00 +27°C° 0 mm 1 m/S 743 mmHg 61%
    13:00 +28°C° 0 mm 1 m/S 742 mmHg 61%
    14:00 +28°C° 0 mm 1 m/S 742 mmHg 60%
    15:00 +26°C° 0 mm 1 m/S 742 mmHg 69%
    16:00 +24°C° 0 mm 1 m/S 742 mmHg 77%
    17:00 +23°C° 0 mm 1 m/S 742 mmHg 86%
    18:00 +22°C° 0 mm 1 m/S 742 mmHg 89%
    19:00 +21°C° 0 mm 1 m/S 743 mmHg 92%
    20:00 +18°C° 0 mm 0 m/S 743 mmHg 95%
    21:00 +20°C° 0 mm 1 m/S 743 mmHg 96%
    22:00 +20°C° 0 mm 1 m/S 743 mmHg 96%
    23:00 +20°C° 0 mm 1 m/S 743 mmHg 96%

    29 November, Mittwoch

    Zeit Temperatur Niederschläge Wind Luftdruck Luftfeuchtigkeit
    00:00 +20°C° 0,1 mm 1 m/S 743 mmHg 96%
    01:00 +20°C° 0,1 mm 1 m/S 743 mmHg 97%
    02:00 +20°C° 0,1 mm 1 m/S 742 mmHg 97%
    03:00 +20°C° 0,6 mm 1 m/S 742 mmHg 97%
    04:00 +20°C° 0,6 mm 1 m/S 742 mmHg 97%
    05:00 +21°C° 0,6 mm 1 m/S 742 mmHg 97%
    06:00 +21°C° 0,4 mm 1 m/S 743 mmHg 96%
    07:00 +21°C° 0,4 mm 1 m/S 743 mmHg 96%
    08:00 +21°C° 0,4 mm 1 m/S 744 mmHg 95%
    09:00 +22°C° 0,2 mm 1 m/S 743 mmHg 93%
    10:00 +23°C° 0,2 mm 1 m/S 743 mmHg 91%
    11:00 +24°C° 0,2 mm 1 m/S 743 mmHg 88%
    12:00 +24°C° 0,1 mm 1 m/S 742 mmHg 88%
    13:00 +24°C° 0,1 mm 1 m/S 742 mmHg 88%
    14:00 +24°C° 0,1 mm 1 m/S 741 mmHg 87%
    15:00 +24°C° 0,1 mm 1 m/S 741 mmHg 90%
    16:00 +23°C° 0,1 mm 1 m/S 741 mmHg 93%
    17:00 +22°C° 0,1 mm 1 m/S 741 mmHg 96%
    18:00 +22°C° 0,1 mm 1 m/S 741 mmHg 96%
    19:00 +22°C° 0,1 mm 1 m/S 742 mmHg 97%
    20:00 +22°C° 0,1 mm 1 m/S 742 mmHg 97%
    21:00 +21°C° 0 mm 1 m/S 742 mmHg 97%
    22:00 +21°C° 0 mm 1 m/S 742 mmHg 97%
    23:00 +19°C° 0 mm 0 m/S 741 mmHg 98%
    Mehr zeigen